INTELSAT 15 (IS-15)

Last updated on Mon Sep 07 2026 00:02:57 GMT+0000 (Coordinated Universal Time)

1 36106U 09067A 26249.66257866 -.00000202 00000+0 00000+0 0 9990 2 36106 0.0182 91.1711 0002304 87.2616 131.0042 1.00271332 42048
UTC large
Height (km)
Speed (km/s)
/
Latitude / Longitude
Inclination (degrees)
Orbital Period (minutes)
Azimuth
Elevation
Range (km)
Doppler Factor

Next 0 passes for location: London (51.5072 / 0.1276)

No passes found over London.
INTELSAT 15 (IS-15)